User: anonymous   Login
Location: Lamoine Observatory
(44.4551°N, 68.3470°W)
Time: 15:49:27
(UTC-04:00)
Language:

Cosmos 1674 Rocket - Orbit

View from above orbital plane
View from above orbital plane
View from above satellite
View from above satellite

Ground track
Ground track

The orbit data is extracted from the following two-line orbital elements,

1 15945U 85069B   15243.49632672  .00000181  00000-0  18987-4 0  9993
2 15945 082.5278 027.0058 0018330 287.2408 072.6801 14.83742514623796
Epoch (UTC): 31 August 2015 11:54:42
Eccentricity: 0.0018330
inclination: 82.5278°
perigee height: 605 km
apogee height: 630 km
right ascension of ascending node: 27.0058°
argument of perigee: 287.2408°
revolutions per day: 14.83742514
mean anomaly at epoch: 72.6801°
orbit number at epoch: 62379

The dashed part of the orbit path shows where the satellite is in the earth's shadow,  

DLR